Showing default

LEMUR-2-FINNIAN, 66782

Orbit data source: Space-Track

LEMUR-2-FINNIAN, 66782 is an American payload satellite in SSO that was launched on Fri, 28 Nov 2025 UTC via an FALCON 9 launch vehicle from the Air Force Western Test Range (AFWTR). Payload-class satellites include a variety of spacecraft equipped with specific instruments for various scientific and technological missions. These include communications satellites like Starlink; space stations such as the ISS; scientific satellites like the Hubble; Earth observation satellites from companies like Planet Labs, Umbra, and HawkEye 360; GPS; miniature CubeSats for education and research; and military/defense satellites.

Loading next visibility...
Identifier
66782, 2025-276DW
Orbit
SSO
Country
Flag of USUS
Related business
Manufacturer
Spire/Glasgow
Mission
Operational Commercial Technology
Bus & Motor
CUBESAT 4U, Unknown motor
Mass
5 kg wet, 5 kg dry
Launch date (UTC)
2025-11-28 (9 months ago)
Launch vehicle
FALCON 9
Launch site
Air Force Western Test Range (AFWTR)
Object type
Payload
Rocket body
Debris
Shape & HBR
Box, 0.2 m
Radar Cross Section
0.045 m², Medium (>0.1 m² and < 1m²)

Expand to show TLE details & history
Last TLE update: 7 hours ago

TLE from 7 hours ago
0 LEMUR-2-FINNIAN
1 66782U 25276DW  26238.42714535  .00001735  00000-0  14078-3 0  9992
2 66782  97.5301 307.2529 0009557 200.1493 159.9355 15.00884568 30532
Epoch: 2026-08-26T10:15Z
TLE epoch observation values (Epoch: 2026-08-26T10:15:05.358Z)
Latitude
-0.00005°
Longitude
178.80028°
Altitude
573.462 km
Speed
7.571 km/s
True Right ascension
20h 29m 00s
True Declination
0° 00' 00"
Sunlit
Object was in full shadow at epoch
Visualization orbit readout
Latitude
Unknown
Longitude
Unknown
Altitude
Unknown
Speed
Unknown
Apparent Right ascension
Unknown
Apparent Declination
Unknown
Sunlit
N/A
Visualization observer readout
Local Sidereal Time
08:23:23
Azimuth
Unknown
Elevation
Unknown
Doppler factor
Unknown
Orbital elements
Apogee altitude
567.796 km
Perigee altitude
554.532 km
Semi-major axis
6,939.301 km
Eccentricity
0.00096
Inclination
97.5301°
RAAN
307.2529°
Arg. of periapsis
200.1493°
True anomaly
159.97303°
Mean anomaly
159.9355°
Eccentric anomaly
159.95427°
Mean motion
3.75465 °/min
Orbital period
95.88 mins
BSTAR
0.00014078
Loading maneuver chart data...
Computing Atmospheric mass density...
Loading historical data...
Loading historical data...
Loading historical data...
Loading historical data...
Loading historical data...
Loading historical data...
Loading historical data...

Documentation

Showing up to 5 results
|